Flag Weather past 2 weeks in Pensacola, Florida, U.S.A.

Now
73 °F

Passing clouds.


Feels Like: 77 °F
Forecast: 46 / 73 °F
Wind: 13 mph from Northwest

Location: Pensacola Regional Airport

Current Time: Oct 31, 2014 at 4:46:40 PM

Latest Report: Oct 31, 2014 at 3:53 PM


Visibility: 10 mi

Pressure: 29.91 "Hg

Humidity: 36%

Dew point: 44 °F

Location of PensacolaLocation

Historic Weather in Pensacola — Graph

°F

Pensacola temperature yesterday

Maximum temperature yesterday: 73 °F (at 2:53 PM)
Minimum temperature yesterday: 53 °F (at 10:53 PM)
Average temperature yesterday: 64 °F

Past Weeks' High & Low Weather Summary

 TemperatureHumidityPressure
High85 °F (Oct 18, 3:53 PM)100% (Oct 17, 3:53 AM)30.14 "Hg (Oct 17, 3:53 AM)
Low48 °F (Oct 31, 4:53 AM)27% (Oct 16, 3:53 PM)29.91 "Hg (Oct 31, 2:53 PM)
Average67 °F66%30.03 "Hg
* Reported Oct 16 2:53 PM — Oct 31 2:53 PM, Pensacola, Weather by CustomWeather, © 2014

Note: Actual official high and low records may vary slightly from our data, if they occured in-between our weather recording intervals... More about our weather records

Advertising

Pensacola weather history for previous 24 hours

 ConditionsComfort  
Time TempWeatherWind HumidityBarometerVisibility
2:53 PM
Oct 31
75 °FBroken clouds.15 mph32%29.91 "Hg10 mi
1:53 PM74 °FSunny.10 mph33%29.93 "Hg10 mi
12:53 PM73 °FSunny.12 mph34%29.96 "Hg10 mi
11:53 AM70 °FSunny.9 mph35%29.99 "Hg10 mi
10:53 AM68 °FSunny.9 mph36%30.01 "Hg10 mi
9:53 AM65 °FSunny.5 mph44%30.01 "Hg10 mi
8:53 AM59 °FPassing clouds.5 mph58%30.02 "Hg10 mi
7:53 AM51 °FSunny.6 mph74%30.01 "Hg10 mi
6:53 AM48 °FClear.7 mph77%30.00 "Hg10 mi
5:53 AM48 °FClear.6 mph77%29.99 "Hg10 mi
4:53 AM48 °FClear.5 mph77%29.99 "Hg10 mi
3:53 AM49 °FClear.7 mph74%29.99 "Hg10 mi
2:53 AM50 °FClear.6 mph71%29.99 "Hg10 mi
1:53 AM53 °FClear.8 mph61%30.00 "Hg10 mi
12:53 AM55 °FClear.7 mph57%30.01 "Hg10 mi
11:53 PM
Oct 30
53 °FClear.6 mph69%30.01 "Hg10 mi
10:53 PM53 °FClear.6 mph72%30.02 "Hg10 mi
9:53 PM55 °FClear.5 mph69%30.02 "Hg10 mi
8:53 PM58 °FClear.3 mph60%30.01 "Hg10 mi
7:53 PM59 °FClear.7 mph56%30.00 "Hg10 mi
6:53 PM64 °FClear.8 mph41%30.00 "Hg10 mi
5:53 PM66 °FSunny.6 mph43%29.99 "Hg10 mi
4:53 PM71 °FSunny.13 mph35%29.98 "Hg10 mi
Weather by CustomWeather, © 2014

See weather overviewHow to use our weather pages